Regional Weather Roundup
Issued by NWS Little Rock, AR

Home | Current Version | Previous Version | Text Only | Print | Product List | Glossary On
Versions: 1 2 3 4 5 6 7 8 9 10 11 12 13 14 15 16 17 18 19 20 21 22 23 24 25 26 27 28 29 30 31 32 33 34 35 36 37 38 39 40 41 42 43 44 45 46 47 48 49 50
000
ASUS44 KLZK 281605
RWRLZK

WEATHER ROUNDUP FOR ARKANSAS
NATIONAL WEATHER SERVICE LITTLE ROCK AR
1100 AM CDT MON JUL 28 2014

NOTE: "FAIR" INDICATES FEW OR NO CLOUDS BELOW 12,000 FEET WITH NO
SIGNIFICANT WEATHER AND/OR OBSTRUCTIONS TO VISIBILITY.

ARZ001-003-010-029-281700-
NORTHWEST ARKANSAS

CITY           SKY/WX    TMP DP  RH WIND       PRES   REMARKS
FAYETTEVILLE   SUNNY     77  58  51 VRB3      30.22S
FORT SMITH     SUNNY     83  59  44 N10G17    30.18R
HARRISON       SUNNY     75  59  57 VRB5      30.21S
BENTONVILLE    SUNNY     75  57  53 NE8G18    30.24R
ROGERS         SUNNY     75  56  51 E9        30.23S
SILOAM SPGS    SUNNY     75  55  50 N3        30.24S
HIGHFILL       SUNNY     77  58  51 NE8       30.23R
SPRINGDALE     MOSUNNY   75  59  57 NE6G13    30.24R
$$

ARZ004-005-016-281700-
NORTH CENTRAL ARKANSAS

CITY           SKY/WX    TMP DP  RH WIND       PRES   REMARKS
BATESVILLE     SUNNY     79  63  57 W5        30.14S
FLIPPIN        SUNNY     75  59  57 NW7       30.18S
MTN HOME       SUNNY     76  61  59 CALM      30.17R
$$

ARZ040-041-281700-
WEST CENTRAL ARKANSAS

CITY           SKY/WX    TMP DP  RH WIND       PRES   REMARKS
MENA           SUNNY     82  63  51 CALM      30.19S
MOUNT IDA      SUNNY     82  64  54 CALM      30.16R
$$

ARZ009-017-025-026-028-281700-
NORTHEAST ARKANSAS

CITY           SKY/WX    TMP DP  RH WIND       PRES   REMARKS
CORNING          N/A     77  63  61 NW7       30.11F
JONESBORO      SUNNY     77  63  61 N9        30.11S
NEWPORT        SUNNY     80  63  56 N7        30.14R
WALNUT RIDGE   SUNNY     77  63  61 NW9       30.11F
BLYTHEVILLE      N/A     79  64  60 VRB3      30.09F
NW BLYTHEVILLE SUNNY     79  64  61 NW8       30.10R
$$

ARZ022-023-033-042-044-281700-
CENTRAL ARKANSAS

CITY           SKY/WX    TMP DP  RH WIND       PRES   REMARKS
LITTLE ROCK    MOSUNNY   83  61  47 VRB6      30.13F
N LITTLE ROCK  MOSUNNY   81  65  58 N5        30.13F
JACKSONVILLE   SUNNY     81  63  54 NE6       30.14S
SEARCY         SUNNY     80  64  58 NW8       30.14S
HOT SPRINGS    SUNNY     82  62  50 NE9       30.16S
RUSSELLVILLE   SUNNY     82  63  52 N6        30.17R
CLINTON        FAIR      79  63  57 CALM      30.17R
$$

ARZ036-281700-
EAST ARKANSAS

CITY           SKY/WX    TMP DP  RH WIND       PRES   REMARKS
WEST MEMPHIS   SUNNY     81  64  56 N9        30.09R
$$

ARZ050-053-066-070-073-281700-
SOUTHWEST ARKANSAS

CITY           SKY/WX    TMP DP  RH WIND       PRES   REMARKS
ARKADELPHIA    FAIR      84  68  58 VRB5      30.14F HX  87
CAMDEN         SUNNY     84  64  51 N7        30.12S HX  86
TEXARKANA      MOSUNNY   85  66  53 NE9       30.13F HX  87
EL DORADO      SUNNY     86  68  54 N7        30.12R HX  89
DE QUEEN       MOSUNNY   84  68  58 E7        30.14S HX  87
$$

ARZ056-057-069-281700-
SOUTHEAST ARKANSAS

CITY           SKY/WX    TMP DP  RH WIND       PRES   REMARKS
PINE BLUFF     SUNNY     82  65  56 N8        30.12F
STUTTGART      SUNNY     81  64  57 N9        30.13S
MONTICELLO     SUNNY     84  67  56 NE8       30.10F HX  86

$$




USA.gov is the U.S. government's official web portal to all federal, state and local government web resources and services.